Weather History for Dublin, VA

Change the Weather History Date:

Monday, August 26, 2013

  Actual Average (KBCB) Record (KBCB)
Temperature  
Mean Temperature 66 °F 69 °F  
Max Temperature 80 °F 81 °F 91 °F (1953)
Min Temperature 51 °F 58 °F 42 °F (1970)
Degree Days  
Heating Degree Days 0 1  
Month to date heating degree days 1  
Since 1 June heating degree days 45  
Since 1 July heating degree days 7  
Cooling Degree Days 0 5  
Month to date cooling degree days 147  
Year to date cooling degree days 491  
Since 1 June cooling degree days 462  
Growing Degree Days 16 (Base 50)    
Moisture  
Dew Point 59 °F    
Average Humidity 82    
Maximum Humidity 100    
Minimum Humidity 51    
Precipitation  
Precipitation 0.00 in 0.11 in 2.18 in (1961)
Month to date precipitation 3.06  
Year to date precipitation 28.66  
Snow  
Snow 0.00 in - - ()
Month to date snowfall  
Since 1 June snowfall  
Since 1 July snowfall  
Snow Depth -    
Sea Level Pressure  
Sea Level Pressure 30.31 in    
Wind  
Wind Speed 1 mph (WNW)    
Max Wind Speed 7 mph    
Max Gust Speed -    
Visibility 10 miles    
Events      
T = Trace of Precipitation, MM = Missing Value Source: NWS Daily Summary

Daily Weather History Graph

Daily Weather History Graph

Search for Another Location

Airport:

Trip Planner

Search our weather history database for the weather conditions in past years. The results will help you decide how hot, cold, wet, or windy it might be!

Date:

Astronomy

Aug. 26, 2013 Rise Set
Actual Time 6:48 AM EDT 7:59 PM EDT
Civil Twilight 6:21 AM EDT 8:26 PM EDT
Nautical Twilight 5:49 AM EDT 8:58 PM EDT
Astronomical Twilight 5:16 AM EDT 9:31 PM EDT
Moon 11:18 PM EDT (8/26) 12:39 PM EDT (8/26)
Length of Visible Light 14h 04m
Length of Day
13h 10m
Waning Gibbous, 67% of the Moon is Illuminated
Aug 26
Waning Gibbous
Aug 28
Last Quarter
Sep 5
New
Sep 12
First Quarter
Sep 19
Full

Hourly Weather History & Observations

Time (EDT) Temp. Heat Index Dew Point Humidity Pressure Visibility Wind Dir Wind Speed Gust Speed Precip Events Conditions
12:15 AM 57.2 °F - 57.2 °F 100% 30.41 in 10.0 mi Calm Calm - N/A   Unknown
12:35 AM 57.2 °F - 57.2 °F 100% 30.41 in 10.0 mi Calm Calm - N/A   Unknown
12:55 AM 57.2 °F - 57.2 °F 100% 30.41 in 10.0 mi Calm Calm - N/A   Unknown
1:15 AM 55.4 °F - 55.4 °F 100% 30.41 in 10.0 mi Calm Calm - N/A   Unknown
1:35 AM 55.4 °F - 55.4 °F 100% 30.41 in 10.0 mi Calm Calm - N/A   Unknown
1:55 AM 55.4 °F - 55.4 °F 100% 30.40 in 10.0 mi Calm Calm - N/A   Unknown
2:15 AM 55.4 °F - 55.4 °F 100% 30.39 in 10.0 mi Calm Calm - N/A   Unknown
2:35 AM 55.4 °F - 55.4 °F 100% 30.39 in 10.0 mi Calm Calm - N/A   Unknown
2:55 AM 55.4 °F - 55.4 °F 100% 30.38 in 10.0 mi Calm Calm - N/A   Unknown
3:15 AM 53.6 °F - 53.6 °F 100% 30.38 in 7.0 mi Calm Calm - N/A   Unknown
3:35 AM 53.6 °F - 53.6 °F 100% 30.37 in 10.0 mi Calm Calm - N/A   Unknown
3:55 AM 53.6 °F - 53.6 °F 100% 30.37 in 10.0 mi Calm Calm - N/A   Unknown
4:15 AM 53.6 °F - 53.6 °F 100% 30.37 in 7.0 mi Calm Calm - N/A   Unknown
4:35 AM 53.6 °F - 53.6 °F 100% 30.36 in - Calm Calm - N/A   Unknown
4:55 AM 53.6 °F - 53.6 °F 100% 30.36 in - Calm Calm - N/A   Unknown
5:15 AM 51.8 °F - 51.8 °F 100% 30.36 in - Calm Calm - N/A   Unknown
5:35 AM 51.8 °F - 51.8 °F 100% 30.35 in - Calm Calm - N/A   Unknown
5:55 AM 53.6 °F - 53.6 °F 100% 30.36 in - Calm Calm - N/A   Unknown
6:15 AM 51.8 °F - 51.8 °F 100% 30.36 in - Calm Calm - N/A   Unknown
6:35 AM 51.8 °F - 51.8 °F 100% 30.37 in - Calm Calm - N/A   Unknown
6:55 AM 51.8 °F - 51.8 °F 100% 30.38 in - Calm Calm - N/A   Unknown
7:15 AM 51.8 °F - 51.8 °F 100% 30.37 in - Calm Calm - N/A   Unknown
7:35 AM 53.6 °F - 53.6 °F 100% 30.37 in - Calm Calm - N/A   Unknown
7:55 AM 53.6 °F - 53.6 °F 100% 30.38 in - Calm Calm - N/A   Unknown
8:15 AM 53.6 °F - 53.6 °F 100% 30.37 in - Calm Calm - N/A   Unknown
8:35 AM 55.4 °F - 55.4 °F 100% 30.37 in - Calm Calm - N/A   Unknown
8:55 AM 57.2 °F - 57.2 °F 100% 30.38 in 10.0 mi Calm Calm - N/A   Unknown
9:15 AM 59.0 °F - 59.0 °F 100% 30.38 in 10.0 mi Calm Calm - N/A   Scattered Clouds
9:35 AM 60.8 °F - 60.8 °F 100% 30.38 in 10.0 mi Calm Calm - N/A   Scattered Clouds
9:55 AM 62.6 °F - 62.6 °F 100% 30.38 in 10.0 mi Calm Calm - N/A   Clear
10:15 AM 64.4 °F - 64.4 °F 100% 30.39 in 10.0 mi Calm Calm - N/A   Clear
10:35 AM 66.2 °F - 64.4 °F 94% 30.38 in 10.0 mi Calm Calm - N/A   Clear
10:55 AM 69.8 °F - 64.4 °F 83% 30.37 in 10.0 mi Calm Calm - N/A   Clear
11:15 AM 71.6 °F - 62.6 °F 73% 30.36 in 10.0 mi Calm Calm - N/A   Clear
11:35 AM 73.4 °F - 62.6 °F 69% 30.35 in 10.0 mi Calm Calm - N/A   Clear
11:55 AM 73.4 °F - 60.8 °F 65% 30.35 in 10.0 mi West 4.6 mph - N/A   Clear
12:15 PM 73.4 °F - 62.6 °F 69% 30.34 in 10.0 mi West 3.5 mph - N/A   Clear
12:35 PM 75.2 °F - 62.6 °F 65% 30.33 in 10.0 mi Calm Calm - N/A   Clear
12:55 PM 77.0 °F - 60.8 °F 57% 30.33 in 10.0 mi NNE 6.9 mph - N/A   Clear
1:15 PM 77.0 °F - 60.8 °F 57% 30.32 in 10.0 mi North 4.6 mph - N/A   Clear
1:35 PM 77.0 °F - 60.8 °F 57% 30.32 in 10.0 mi NE 3.5 mph - N/A   Clear
1:55 PM 77.0 °F - 60.8 °F 57% 30.31 in 10.0 mi NE 4.6 mph - N/A   Clear
2:15 PM 77.0 °F - 60.8 °F 57% 30.30 in 10.0 mi NNE 4.6 mph - N/A   Clear
2:35 PM 78.8 °F - 60.8 °F 54% 30.30 in 10.0 mi West 3.5 mph - N/A   Clear
2:55 PM 78.8 °F - 60.8 °F 54% 30.28 in 10.0 mi Calm Calm - N/A   Scattered Clouds
3:15 PM 78.8 °F - 60.8 °F 54% 30.28 in 10.0 mi NNW 3.5 mph - N/A   Scattered Clouds
3:35 PM 78.8 °F - 60.8 °F 54% 30.27 in 10.0 mi Calm Calm - N/A   Clear
3:55 PM 80.6 °F 81.5 °F 60.8 °F 51% 30.26 in 10.0 mi Calm Calm - N/A   Scattered Clouds
4:15 PM 78.8 °F - 60.8 °F 54% 30.25 in 10.0 mi Calm Calm - N/A   Scattered Clouds
4:35 PM 80.6 °F 81.5 °F 60.8 °F 51% 30.24 in 10.0 mi Calm Calm - N/A   Clear
4:55 PM 78.8 °F - 60.8 °F 54% 30.24 in 10.0 mi Calm Calm - N/A   Clear
5:15 PM 78.8 °F - 60.8 °F 54% 30.23 in 10.0 mi Calm Calm - N/A   Clear
5:35 PM 77.0 °F - 60.8 °F 57% 30.23 in 10.0 mi Calm Calm - N/A   Clear
5:55 PM 78.8 °F - 60.8 °F 54% 30.22 in 10.0 mi Calm Calm - N/A   Clear
6:15 PM 78.8 °F - 60.8 °F 54% 30.22 in 10.0 mi Calm Calm - N/A   Clear
6:35 PM 78.8 °F - 62.6 °F 57% 30.21 in 10.0 mi Calm Calm - N/A   Clear
6:55 PM 77.0 °F - 62.6 °F 61% 30.21 in 10.0 mi Calm Calm - N/A   Clear
7:15 PM 75.2 °F - 64.4 °F 69% 30.21 in 10.0 mi Calm Calm - N/A   Clear
7:35 PM 73.4 °F - 62.6 °F 69% 30.21 in 10.0 mi Calm Calm - N/A   Clear
7:55 PM 71.6 °F - 62.6 °F 73% 30.21 in 10.0 mi Calm Calm - N/A   Clear
8:15 PM 71.6 °F - 60.8 °F 69% 30.21 in 10.0 mi WSW 3.5 mph - N/A   Clear
8:35 PM 68.0 °F - 62.6 °F 83% 30.21 in 10.0 mi West 3.5 mph - N/A   Clear
8:55 PM 66.2 °F - 62.6 °F 88% 30.21 in 10.0 mi Calm Calm - N/A   Clear
9:15 PM 66.2 °F - 62.6 °F 88% 30.22 in 10.0 mi West 3.5 mph - N/A   Clear
9:35 PM 68.0 °F - 62.6 °F 83% 30.23 in 10.0 mi Calm Calm - N/A   Clear
9:55 PM 66.2 °F - 62.6 °F 88% 30.23 in 10.0 mi West 3.5 mph - N/A   Clear
10:15 PM 68.0 °F - 62.6 °F 83% 30.23 in 10.0 mi West 4.6 mph - N/A   Clear
10:35 PM 66.2 °F - 62.6 °F 88% 30.23 in 10.0 mi Calm Calm - N/A   Clear
10:55 PM 66.2 °F - 62.6 °F 88% 30.23 in 10.0 mi West 4.6 mph - N/A   Clear
11:15 PM 69.8 °F - 62.6 °F 78% 30.23 in 10.0 mi WSW 3.5 mph - N/A   Clear
11:35 PM 66.2 °F - 62.6 °F 88% 30.22 in 10.0 mi WSW 3.5 mph - N/A   Clear
11:55 PM 64.4 °F - 62.6 °F 94% 30.21 in 10.0 mi WSW 4.6 mph - N/A   Clear